Bloomington, IN

8:06 PM EST on February 19, 2017 (GMT -0500)
Monroe County

Weather History for KBMG - April, 2014

Change the Weather History Date:

Tuesday, April 8, 2014

  Actual Average Record
Temperature  
Mean Temperature 50 °F 51 °F  
Max Temperature 60 °F 63 °F 80 °F (2001)
Min Temperature 40 °F 40 °F 27 °F (2016)
Degree Days  
Heating Degree Days 15 14  
Month to date heating degree days 120 121  
Since 1 July heating degree days 5519 4877  
Cooling Degree Days 0 0  
Month to date cooling degree days 0 0  
Year to date cooling degree days 0 3  
Moisture  
Dew Point 42 °F    
Average Humidity 74    
Maximum Humidity 96    
Minimum Humidity 51    
Precipitation  
Precipitation 0.01 in 0.17 in 0.54 in (2002)
Month to date precipitation 4.70 1.23  
Year to date precipitation 11.29 11.18  
Sea Level Pressure  
Sea Level Pressure 29.75 in    
Wind  
Wind Speed 6 mph (West)    
Max Wind Speed 17 mph    
Max Gust Speed 23 mph    
Visibility 9 miles    
Events      
T = Trace of Precipitation, MM = Missing Value Source: NWS Daily Summary

Daily Weather History Graph

Daily Weather History Graph

Search for Another Location

Airport or City:

Trip Planner

Search our weather history database for the weather conditions in past years. The results will help you decide how hot, cold, wet, or windy it might be!

Date:

Astronomy

Apr. 08, 2014 Rise Set
Actual Time 7:20 AM EDT 8:17 PM EDT
Civil Twilight 6:52 AM EDT 8:44 PM EDT
Nautical Twilight 6:20 AM EDT 9:16 PM EDT
Astronomical Twilight 5:46 AM EDT 9:50 PM EDT
Moon 2:12 PM EDT (4/8) 3:30 AM EDT (4/8)
Length of Visible Light 13h 51m
Length of Day
12h 56m
Waxing Gibbous, 62% of the Moon is Illuminated
Apr 8
Waxing Gibbous
Apr 15
Full
Apr 22
Last Quarter
Apr 29
New
May 6
First Quarter

Hourly Weather History & Observations

Time (EDT) Temp. Windchill Dew Point Humidity Pressure Visibility Wind Dir Wind Speed Gust Speed Precip Events Conditions
12:43 AM 43.0 °F 38.2 °F 41.0 °F 93% 29.69 in 8.0 mi West 8.1 mph - 0.01 in   Overcast
12:53 AM 43.0 °F 38.2 °F 41.0 °F 93% 29.70 in 7.0 mi West 8.1 mph - 0.01 in   Overcast
1:14 AM 43.0 °F 38.2 °F 41.0 °F 93% 29.70 in 8.0 mi West 8.1 mph - N/A   Overcast
1:53 AM 43.0 °F 37.7 °F 41.0 °F 93% 29.70 in 8.0 mi WSW 9.2 mph - N/A   Overcast
2:53 AM 42.1 °F 36.6 °F 39.9 °F 92% 29.71 in 7.0 mi WSW 9.2 mph - N/A   Scattered Clouds
3:53 AM 42.1 °F 36.6 °F 39.9 °F 92% 29.71 in 9.0 mi West 9.2 mph - N/A   Clear
4:53 AM 41.0 °F 37.1 °F 39.0 °F 93% 29.70 in 7.0 mi West 5.8 mph - N/A   Partly Cloudy
5:53 AM 41.0 °F 38.0 °F 37.9 °F 89% 29.70 in 6.0 mi SW 4.6 mph - N/A   Partly Cloudy
6:53 AM 42.1 °F 40.2 °F 39.9 °F 92% 29.72 in 7.0 mi WSW 3.5 mph - N/A   Overcast
7:53 AM 43.0 °F 40.3 °F 39.9 °F 89% 29.73 in 6.0 mi WSW 4.6 mph - N/A   Overcast
8:53 AM 44.1 °F 40.1 °F 41.0 °F 89% 29.75 in 7.0 mi SW 6.9 mph - N/A   Mostly Cloudy
9:53 AM 46.9 °F - 43.0 °F 86% 29.75 in 8.0 mi West 8.1 mph - N/A   Scattered Clouds
10:53 AM 48.9 °F - 44.1 °F 83% 29.75 in 9.0 mi WSW 5.8 mph - N/A   Overcast
11:53 AM 52.0 °F - 45.0 °F 77% 29.76 in 10.0 mi SSW 3.5 mph - N/A   Partly Cloudy
12:26 PM 54.0 °F - 45.0 °F 72% 29.76 in 10.0 mi SW 3.5 mph - N/A   Mostly Cloudy
12:53 PM 55.0 °F - 44.1 °F 67% 29.76 in 10.0 mi Variable 3.5 mph - N/A   Mostly Cloudy
1:22 PM 55.9 °F - 44.1 °F 64% 29.76 in 10.0 mi NW 5.8 mph - N/A   Overcast
1:38 PM 55.9 °F - 44.1 °F 64% 29.75 in 10.0 mi NNW 4.6 mph - N/A   Mostly Cloudy
1:45 PM 55.9 °F - 44.1 °F 64% 29.75 in 10.0 mi WNW 4.6 mph - N/A   Mostly Cloudy
1:53 PM 55.0 °F - 44.1 °F 67% 29.75 in 10.0 mi West 8.1 mph - N/A   Mostly Cloudy
2:53 PM 57.0 °F - 46.0 °F 67% 29.74 in 10.0 mi West 11.5 mph - 0.01 in   Mostly Cloudy
3:53 PM 59.0 °F - 41.0 °F 51% 29.73 in 10.0 mi Variable 6.9 mph - N/A   Mostly Cloudy
4:53 PM 59.0 °F - 41.0 °F 51% 29.73 in 10.0 mi North 10.4 mph - 0.00 in   Mostly Cloudy
5:53 PM 57.0 °F - 42.1 °F 57% 29.75 in 10.0 mi North 10.4 mph - N/A   Mostly Cloudy
6:53 PM 55.0 °F - 39.9 °F 57% 29.78 in 10.0 mi NNW 11.5 mph - 0.00 in   Overcast
7:53 PM 54.0 °F - 41.0 °F 62% 29.81 in 10.0 mi Variable 6.9 mph - N/A   Mostly Cloudy
8:53 PM 50.0 °F - 42.1 °F 74% 29.84 in 10.0 mi North 9.2 mph - N/A   Clear
9:53 PM 48.9 °F - 39.9 °F 71% 29.88 in 10.0 mi Calm Calm - N/A   Clear
10:53 PM 48.0 °F - 39.0 °F 71% 29.89 in 10.0 mi Calm Calm - N/A   Partly Cloudy
11:53 PM 46.0 °F - 39.0 °F 76% 29.90 in 10.0 mi Calm Calm - N/A   Overcast